GEFSCGP_500_meanwind_210.txt.gz
Wind_Speed
26 26 24 22 20 18 16 15 14 14 19 17 15 15 15 13 11 11 10 10 9 7 7 7 8 8 8 8 9 9 10 9 8 8 7 7 7 6 6 6 7 6 5 4
28 26 24 23 23 22 21 19 18 17 21 20 18 17 17 16 14 13 12 11 11 9 7 8 8 8 8 9 9 10 10 9 8 8 8 7 7 7 7 6 6 6 6 5
28 25 26 26 26 25 24 22 19 20 21 21 19 18 18 17 16 16 14 13 12 12 9 8 9 9 9 9 9 9 9 9 8 8 7 7 8 7 7 7 7 6 6 5
28 27 28 28 28 26 25 23 22 22 22 21 19 18 19 18 18 17 16 14 13 13 12 10 9 9 9 9 9 9 9 9 9 8 8 8 8 8 8 9 8 7 7 6
29 29 30 30 28 27 26 24 25 24 23 22 21 19 18 20 20 17 16 15 14 14 13 11 10 9 9 9 9 9 9 9 9 9 8 8 8 9 9 9 9 8 8 8
29 30 30 29 29 29 28 26 25 25 24 25 22 21 20 20 21 19 17 17 15 15 14 12 11 10 10 9 9 9 9 9 10 10 9 9 10 10 11 11 11 10 10 9
29 30 30 29 29 30 30 27 25 25 25 24 21 22 19 18 20 19 18 17 17 16 15 14 12 11 10 10 10 10 10 10 10 10 10 11 11 12 12 12 12 11 10 10
27 28 29 28 29 29 29 28 26 22 20 19 19 21 20 20 20 19 18 18 18 18 17 16 14 12 11 11 11 11 11 11 11 11 11 12 12 12 12 13 12 12 11 11
24 25 26 28 27 28 28 29 26 23 19 17 17 18 20 22 23 22 20 20 19 18 18 17 16 15 13 13 12 12 12 12 12 12 12 12 12 12 13 12 12 12 12 12
24 24 24 26 27 29 28 26 27 26 24 20 17 18 21 23 24 23 21 19 17 18 19 18 18 16 15 14 12 12 13 13 13 13 13 13 13 13 13 13 12 12 12 11
26 24 22 26 27 26 28 28 27 26 26 22 18 18 19 23 23 21 19 20 19 19 19 19 17 17 15 13 13 13 13 13 13 13 14 14 14 15 14 14 13 14 13 12
28 26 23 25 24 24 26 28 28 28 28 27 22 19 21 22 22 20 20 21 22 21 19 19 18 17 16 15 14 14 14 14 14 14 14 15 15 15 15 15 15 15 13 12
30 29 26 24 25 26 27 28 29 29 28 27 24 23 23 21 20 20 21 21 21 20 20 20 19 18 18 16 15 15 15 14 14 15 15 15 15 15 15 15 15 15 14 13
30 30 28 23 23 24 25 27 28 29 29 27 26 24 24 22 21 21 21 21 21 21 21 20 18 18 18 18 17 16 15 15 15 15 16 16 15 14 14 15 15 14 14 14
29 30 30 26 22 21 23 26 27 29 28 27 25 24 24 23 24 24 24 23 23 22 22 21 19 18 19 18 17 16 16 15 16 16 15 15 15 16 15 16 16 16 16 15
30 30 30 28 24 22 22 22 25 26 27 27 25 24 26 26 26 26 26 25 24 23 22 22 21 20 20 18 17 17 17 17 17 16 16 16 17 17 17 17 17 18 17 17
28 29 29 28 26 24 23 24 24 26 28 28 28 27 28 29 29 30 29 26 25 25 24 23 21 20 20 19 18 18 18 18 17 17 17 18 18 18 18 19 19 18 18 18
27 28 27 26 25 26 24 23 24 25 27 28 30 30 30 31 29 30 29 27 27 26 24 23 23 22 21 20 20 19 19 19 19 19 19 19 19 19 19 19 19 19 20 19
28 27 27 26 25 24 22 23 24 25 27 28 28 29 31 30 29 30 29 28 27 26 25 24 24 24 23 22 22 21 21 20 19 20 20 20 20 20 20 20 20 20 20 20
28 29 28 28 26 23 24 24 25 26 28 30 31 32 31 31 32 31 30 30 28 27 26 26 26 25 25 25 24 23 22 22 21 21 21 21 21 20 20 21 21 21 21 21
29 29 30 29 27 24 24 25 25 27 29 29 29 29 30 30 31 32 31 30 29 29 28 27 27 26 26 26 26 25 25 24 23 22 21 22 22 22 22 23 22 23 22 22
28 28 29 30 28 26 26 25 27 28 28 28 28 28 29 30 31 32 32 30 30 29 29 28 28 28 27 27 27 27 26 25 24 24 23 23 23 24 24 24 23 23 23 23
28 28 28 30 31 30 30 28 28 27 28 28 27 27 27 29 30 30 31 29 28 28 29 29 29 29 29 28 28 27 26 26 25 25 25 25 24 25 26 25 24 24 24 24
31 31 31 32 32 31 30 29 28 27 28 27 27 27 27 28 28 28 28 28 29 28 29 29 30 30 29 29 28 27 27 26 26 26 26 25 26 26 26 25 25 25 25 24
31 32 32 32 32 31 30 29 27 26 27 27 27 26 27 28 27 27 28 28 29 28 28 29 29 29 29 29 28 27 27 27 27 27 27 27 26 26 26 26 25 25 25 25
34 32 32 34 33 31 29 29 28 27 27 27 27 27 27 28 27 27 27 27 28 28 28 29 29 28 28 28 28 28 27 27 27 27 26 26 26 25 26 25 25 26 26 26

GEFSCGP_500_meanwind_216.txt.gz
Wind_Speed
26 25 23 21 20 19 19 18 16 14 13 13 13 13 13 12 11 9 8 8 6 6 5 5 6 6 7 7 7 7 7 7 7 7 7 7 7 7 6 5 4 4 4 3
27 25 24 24 23 22 21 19 17 15 13 13 14 15 14 14 13 11 9 8 7 6 5 5 5 5 6 6 6 6 6 6 6 6 6 7 7 6 6 5 5 4 3 3
27 25 27 26 25 24 22 21 19 18 17 17 18 17 16 15 14 12 10 8 7 7 6 5 5 5 5 5 6 6 6 6 5 5 5 6 6 5 5 5 5 4 4 3
28 28 28 28 27 26 24 23 22 22 22 20 20 19 17 15 15 14 13 10 9 8 8 6 5 4 4 5 5 5 5 5 5 5 5 5 6 5 5 5 5 4 4 4
29 29 29 29 28 27 25 24 25 25 24 23 22 22 19 18 17 16 14 12 11 9 9 7 6 5 4 4 4 4 5 5 5 4 5 5 5 5 6 6 7 6 5 6
29 30 30 29 28 27 26 27 27 27 26 25 23 23 21 20 18 17 16 14 12 10 10 9 8 7 5 5 5 5 5 5 5 5 5 5 5 6 6 7 7 8 7 7
30 30 30 29 29 28 29 29 30 29 29 26 23 24 22 19 18 17 16 14 13 12 11 11 10 8 6 6 6 6 6 6 6 6 6 6 6 7 7 8 8 9 9 8
30 30 30 29 29 28 29 29 30 30 29 26 24 24 20 18 18 18 17 15 14 14 13 12 11 9 8 7 7 7 7 7 7 7 7 7 7 7 8 8 9 9 9 8
30 29 29 29 28 28 28 28 28 30 29 28 26 23 21 19 19 19 17 15 14 13 13 12 12 10 9 8 8 8 8 8 9 8 7 7 7 8 8 9 9 9 9 8
29 29 29 28 28 28 28 28 29 30 29 28 26 24 22 20 19 19 19 18 15 14 13 13 13 11 10 10 9 8 8 9 9 9 8 8 8 8 9 9 9 9 9 9
30 28 28 28 29 28 27 29 30 30 29 28 27 23 21 20 20 20 20 19 17 16 15 15 15 14 13 12 10 9 8 9 10 9 9 8 8 9 10 10 10 10 10 10
29 28 29 28 26 26 27 27 28 30 30 29 27 24 21 20 20 19 19 19 18 17 16 15 15 15 13 12 11 10 9 10 10 10 10 9 9 9 10 10 10 10 11 11
29 30 29 29 28 27 28 27 28 29 30 30 28 25 22 20 20 20 20 19 19 18 16 16 15 15 15 13 11 11 11 11 11 10 10 11 11 10 11 11 11 11 11 11
30 30 29 30 29 28 28 28 29 29 31 31 29 27 24 22 21 20 20 21 19 19 18 17 16 16 16 15 12 11 12 13 13 12 12 11 11 11 12 12 12 11 11 11
30 31 30 29 29 28 27 27 28 30 30 31 29 29 28 26 24 23 23 22 22 22 21 20 19 18 17 15 14 13 14 15 14 13 12 12 12 12 13 13 13 12 13 12
31 31 30 30 30 30 29 28 28 28 29 31 31 31 30 29 27 26 25 24 25 25 24 22 20 19 17 15 15 15 15 15 15 14 14 14 13 13 14 14 14 14 14 14
33 31 30 31 30 31 31 29 28 28 29 29 31 32 32 31 29 29 28 27 27 26 25 22 20 20 19 18 18 17 16 16 15 15 15 15 15 14 14 15 14 15 14 14
32 32 30 30 30 32 30 29 28 28 28 29 31 32 32 32 31 30 30 30 28 27 26 24 23 23 21 20 20 19 19 18 17 16 16 17 16 16 16 15 15 15 16 16
32 31 31 31 32 32 31 29 28 28 28 29 31 32 33 32 33 32 31 31 29 28 26 25 24 24 22 20 20 20 20 20 18 18 18 18 18 17 17 17 17 17 17 17
31 31 32 33 33 34 31 30 29 29 29 30 31 31 31 32 33 32 32 32 30 28 27 26 25 24 23 22 22 22 22 21 20 20 20 20 20 19 18 18 18 18 18 19
31 31 32 33 34 34 32 31 31 31 31 30 30 31 30 31 32 31 31 31 30 29 29 28 27 26 25 24 23 23 23 22 21 22 22 22 22 21 20 20 20 19 19 20
31 30 32 33 34 33 32 32 33 32 30 30 31 30 31 32 32 31 31 30 29 29 29 28 27 27 26 25 25 25 25 23 23 23 23 23 23 23 23 23 22 22 21 21
32 31 31 32 31 30 31 32 32 32 31 29 29 29 30 30 31 31 30 30 29 28 28 28 28 27 26 26 26 26 26 25 24 24 24 24 24 24 25 24 24 23 23 23
32 32 32 31 31 30 30 31 31 31 31 30 29 28 28 29 29 29 30 30 30 29 28 28 28 27 26 26 27 26 26 26 26 26 25 26 26 25 25 24 25 25 25 25
32 32 31 31 31 31 31 30 30 30 29 28 28 28 28 28 27 28 28 28 29 29 28 27 28 28 26 26 26 26 27 26 27 27 27 27 26 26 26 26 26 24 25 24
32 32 31 31 31 31 30 30 30 30 30 28 27 27 27 26 27 27 27 27 27 27 26 26 26 27 27 26 25 25 26 24 24 25 26 26 25 25 25 26 26 25 24 23

GEFSCGP_500_meanwind_222.txt.gz
Wind_Speed
28 27 25 23 22 20 19 18 16 15 14 12 9 6 4 4 3 5 6 7 7 8 9 9 8 7 8 7 7 6 6 6 6 6 6 6 6 5 4 3 3 3 3 3
29 28 26 26 25 23 21 20 19 18 17 14 12 9 7 5 5 5 5 6 6 6 7 8 8 7 7 7 7 7 6 5 5 5 6 6 6 6 5 4 3 3 3 4
29 28 28 27 26 25 23 22 21 20 19 17 16 13 10 8 7 6 5 5 5 6 7 6 6 6 6 7 6 6 6 5 5 5 5 6 5 5 5 4 4 3 4 4
31 30 29 28 28 26 25 24 23 22 21 20 18 15 12 10 9 7 5 5 5 6 7 6 6 6 6 6 6 6 6 6 6 5 5 6 6 5 5 5 5 4 4 5
31 31 30 29 28 27 26 26 26 25 25 23 22 19 14 12 9 7 7 5 6 7 7 7 6 7 6 6 6 7 7 7 7 6 5 6 6 6 6 5 5 5 5 6
32 32 31 30 29 28 28 27 27 27 27 26 24 22 18 14 11 9 8 7 7 8 9 8 7 8 8 8 8 8 8 8 8 8 7 7 7 7 7 6 6 7 7 6
32 32 31 31 30 30 29 28 29 29 29 28 25 24 20 16 13 12 11 9 9 9 10 10 9 8 9 9 9 9 9 9 9 8 8 8 8 8 8 8 8 8 8 8
32 32 32 31 31 31 30 29 30 30 29 28 27 25 21 18 16 15 14 12 11 11 11 12 10 9 10 10 10 10 11 11 10 9 9 8 8 9 8 9 9 9 10 9
31 31 31 31 31 31 31 30 30 30 29 29 28 25 22 20 18 16 15 14 13 12 12 12 11 10 10 11 12 12 12 12 11 10 9 9 9 9 9 9 10 10 10 10
31 31 31 31 31 32 31 31 31 31 30 30 29 26 23 21 20 18 17 16 15 14 14 13 12 12 12 12 13 13 14 13 12 11 11 10 9 10 10 10 10 11 11 11
31 31 30 31 32 32 31 32 32 31 31 31 29 27 24 22 21 20 19 18 17 16 15 14 14 13 13 13 13 13 14 13 12 11 11 11 11 11 11 11 11 11 11 11
30 30 30 31 31 32 32 31 31 32 31 30 29 27 25 24 23 22 20 19 18 16 16 15 15 14 15 15 14 14 15 15 14 14 13 13 12 12 12 12 12 12 12 12
30 30 30 31 31 32 32 32 31 31 31 31 29 27 25 25 24 22 21 19 18 17 17 17 15 15 16 16 16 16 15 16 16 14 14 13 13 13 13 13 13 13 13 14
30 30 30 30 29 30 31 31 31 31 31 30 29 27 26 25 24 23 22 21 20 19 17 16 16 16 17 17 17 16 17 17 17 16 15 14 15 15 15 14 14 14 14 15
31 30 30 29 29 29 29 29 30 31 30 30 28 27 26 25 25 24 23 22 21 19 18 17 17 18 18 17 18 18 17 17 17 16 16 16 15 15 15 15 15 16 15 16
32 31 30 30 29 29 29 29 29 29 30 29 28 27 26 25 24 24 23 22 21 20 19 19 18 18 18 18 19 20 20 18 17 17 17 17 17 16 17 17 17 17 17 17
33 32 31 31 30 29 30 29 29 29 28 27 27 26 25 24 24 23 23 22 22 22 21 21 21 20 20 21 22 21 21 19 19 19 18 18 18 18 18 19 18 18 18 18
33 31 31 31 30 31 29 28 28 28 27 26 26 25 25 24 23 23 23 23 23 22 22 22 22 22 22 23 23 22 22 22 21 20 20 19 20 21 21 20 20 20 19 20
33 32 31 31 31 31 29 28 28 27 27 26 25 24 25 24 25 25 24 24 24 24 24 23 23 22 23 23 23 23 23 23 22 22 22 21 22 23 22 22 22 22 21 21
33 32 32 32 32 32 29 28 28 27 27 26 25 24 23 24 25 25 25 25 25 25 26 25 24 23 24 24 24 24 24 23 23 23 22 23 23 24 24 23 24 23 23 22
32 33 33 33 32 31 29 28 27 27 26 25 24 24 23 24 24 24 25 26 27 27 27 27 26 25 25 24 24 24 24 24 24 25 25 25 26 26 25 23 24 24 24 24
32 32 32 32 32 31 29 28 28 27 26 25 25 24 24 23 24 24 26 26 26 27 27 26 26 26 26 25 24 24 24 25 25 26 27 27 28 28 26 25 25 26 26 26
31 32 31 32 32 31 30 29 27 27 26 26 25 25 25 24 25 25 25 26 26 26 26 26 26 26 25 25 24 24 24 25 25 26 28 28 27 27 26 26 27 27 27 27
31 32 32 31 31 30 30 30 29 28 28 27 27 26 25 25 25 25 26 26 26 26 26 26 26 26 25 25 25 25 24 25 26 26 27 27 26 26 26 26 26 26 26 26
31 31 31 31 30 29 29 29 29 29 29 28 27 26 26 25 25 24 25 25 25 26 26 26 25 25 25 26 26 26 25 24 24 25 24 24 24 24 25 25 26 26 25 25
30 30 30 29 29 30 29 28 28 28 28 28 27 27 27 26 25 25 24 24 25 25 25 25 25 24 25 25 25 24 23 23 23 23 23 22 22 24 24 24 24 24 24 24

GEFSCGP_500_meanwind_228.txt.gz
Wind_Speed
25 24 23 21 19 17 15 13 12 10 8 6 6 5 4 3 2 3 4 4 5 6 7 7 7 7 7 7 7 7 7 7 8 7 7 7 7 6 6 5 4 3 3 3
27 27 25 23 21 20 18 16 14 13 10 8 8 7 6 5 4 4 4 4 4 5 6 6 6 6 6 6 7 7 7 7 7 7 7 7 7 7 6 6 5 4 3 3
29 28 26 25 23 22 20 18 17 15 12 11 10 9 8 7 6 5 4 4 4 5 5 6 6 6 6 6 6 6 7 7 7 7 7 6 6 7 7 6 5 4 4 4
30 29 28 26 25 23 22 20 19 17 15 14 12 10 11 10 9 8 6 6 5 5 5 6 6 6 6 6 6 6 6 7 7 7 7 6 6 6 6 6 5 6 5 5
30 29 28 28 26 25 24 22 21 19 18 17 15 13 12 11 10 9 8 8 7 7 6 7 7 7 7 7 7 6 6 7 7 7 7 7 6 6 6 6 6 6 6 6
31 29 29 29 28 27 26 23 22 21 20 20 18 15 14 13 11 10 10 9 9 8 8 8 9 8 8 7 7 7 7 7 8 8 8 8 7 6 6 6 6 6 7 7
31 30 30 29 29 28 27 25 24 23 23 22 19 18 16 14 13 12 12 11 11 10 9 9 9 9 8 7 7 7 8 8 8 8 8 8 7 7 7 7 7 7 8 8
31 32 31 30 29 28 27 27 25 23 22 22 21 20 17 15 14 14 14 13 12 12 11 10 10 10 10 9 8 8 9 9 10 9 9 9 9 9 8 9 9 8 9 9
31 32 31 30 30 29 28 28 26 24 23 21 21 21 18 17 16 16 15 15 14 14 13 12 11 11 10 10 10 10 10 10 11 11 10 10 10 9 10 10 10 10 10 10
31 31 30 30 30 30 29 28 28 26 24 22 21 21 19 18 17 16 16 16 16 16 15 14 13 12 12 12 12 12 12 12 12 12 12 11 11 11 11 11 10 11 11 12
31 31 30 30 30 30 29 29 29 27 26 21 19 20 19 18 18 17 17 17 17 17 17 15 14 14 14 14 14 14 13 13 14 13 13 13 13 12 12 12 12 12 12 12
31 31 30 30 29 30 29 29 28 28 27 25 20 20 21 20 19 19 18 18 18 18 18 17 16 15 15 15 15 15 15 15 15 15 13 13 13 13 14 14 13 13 13 13
31 31 30 29 30 30 30 30 29 28 27 25 22 21 22 21 20 20 20 19 19 18 18 17 17 16 16 16 16 16 15 15 15 16 15 15 15 16 16 16 15 14 14 14
31 31 30 28 29 29 30 29 29 28 27 25 23 22 22 21 20 20 20 20 19 18 18 18 18 18 18 17 17 17 16 16 16 16 16 17 18 18 19 17 16 15 15 15
31 31 31 30 30 29 29 29 29 28 27 25 24 23 22 22 21 21 21 21 20 20 19 19 19 19 19 19 18 19 18 18 17 17 17 18 19 19 18 17 17 16 16 16
32 31 31 31 30 30 29 29 29 28 28 26 25 24 23 23 22 21 21 22 21 21 21 20 20 20 21 20 20 20 20 20 19 19 19 19 18 17 17 17 17 17 17 17
32 31 31 30 30 30 31 29 28 28 28 27 26 25 24 23 23 22 23 23 22 23 23 22 22 22 21 21 21 21 21 20 20 20 20 20 19 18 19 18 18 18 18 19
31 31 30 29 30 31 30 29 29 28 28 27 26 25 25 23 23 24 23 23 23 24 24 24 23 22 22 22 22 22 22 21 21 20 21 21 20 19 19 19 19 19 20 21
31 31 30 29 30 31 31 30 29 28 28 27 26 25 24 23 23 24 24 24 24 23 24 24 23 23 23 23 23 23 22 22 22 22 22 22 21 20 20 21 21 21 22 23
30 31 31 30 29 30 30 29 28 27 28 28 26 25 24 23 23 23 24 24 24 23 24 24 23 23 24 25 24 25 24 23 24 24 23 23 22 22 22 22 22 23 24 24
30 31 31 30 29 29 28 28 28 28 26 26 25 24 23 23 23 23 23 24 24 24 24 24 24 24 24 24 25 24 25 25 24 23 24 24 23 23 23 23 23 23 24 24
29 30 31 31 30 29 29 28 28 27 26 25 24 24 24 23 23 22 22 23 24 24 25 25 24 24 25 25 25 25 25 26 25 25 25 24 24 24 24 24 24 24 24 24
30 30 30 31 30 30 28 28 27 26 26 25 25 25 24 24 24 24 24 24 24 25 25 25 25 24 25 25 25 25 26 26 25 24 24 24 24 24 24 24 25 24 24 24
29 29 30 30 30 29 28 27 27 26 26 26 25 25 25 25 25 24 23 23 24 25 25 25 25 25 24 25 25 26 25 24 25 25 25 25 24 24 24 24 24 25 25 25
28 27 28 29 29 28 28 27 27 27 27 26 25 25 25 26 25 24 23 23 23 24 24 25 25 25 25 24 24 24 24 24 24 25 24 24 24 24 23 23 24 24 25 25
28 28 28 29 28 28 28 28 27 27 27 26 26 26 25 25 25 24 24 24 24 24 24 25 25 25 24 24 24 24 24 24 24 24 24 24 24 22 22 22 23 23 23 24

GEFSCGP_500_meanwind_234.txt.gz
Wind_Speed
21 20 18 16 14 12 12 11 11 13 11 9 9 9 8 8 10 10 10 9 9 9 10 10 10 10 11 11 11 11 11 11 11 10 9 8 7 7 8 8 7 5 5 5
24 22 20 19 17 16 15 14 14 14 13 10 10 10 9 9 10 10 10 9 8 8 9 9 9 10 10 10 11 10 10 10 10 10 9 8 8 7 8 8 7 6 6 6
25 22 21 21 20 19 17 16 16 14 14 12 11 11 12 11 11 11 11 10 8 8 8 8 9 9 9 10 10 9 9 9 9 10 10 9 8 8 7 7 7 7 7 7
27 25 24 24 23 21 19 18 17 16 15 13 12 13 14 14 13 12 11 10 9 8 8 8 8 9 9 10 9 9 9 10 10 10 9 9 9 8 7 7 7 7 8 8
27 26 26 25 24 22 21 20 19 18 17 15 14 15 15 15 15 13 12 11 10 9 8 8 8 8 9 9 9 10 10 10 10 10 10 9 9 8 8 7 7 7 8 8
28 27 27 26 24 23 22 21 20 19 18 19 17 15 17 16 15 14 14 12 11 10 9 8 8 8 9 9 10 10 10 9 9 10 10 9 9 8 8 7 7 7 7 8
30 28 28 27 26 25 23 22 20 19 20 20 17 17 19 18 15 14 14 14 13 12 11 10 10 9 9 10 10 10 10 10 10 10 10 10 9 9 8 9 9 9 8 9
29 29 29 28 27 26 25 23 22 20 18 17 17 19 20 19 17 16 16 15 14 14 13 12 11 11 10 10 10 11 10 10 10 10 11 11 10 9 9 9 9 10 9 10
24 25 28 29 28 27 26 25 23 21 19 18 17 19 19 21 19 17 16 17 15 15 15 14 13 12 12 11 11 11 11 11 11 11 12 12 11 11 10 10 10 11 11 11
25 25 26 28 28 29 27 24 23 24 22 21 19 19 19 21 20 18 17 17 15 15 16 16 14 14 12 12 12 12 12 11 12 12 13 13 13 12 12 11 11 11 11 12
27 25 24 27 29 27 28 27 26 25 24 20 18 18 18 21 20 19 18 18 18 17 17 16 16 15 14 13 13 13 13 13 13 14 14 15 14 13 13 12 12 12 12 13
30 26 25 26 26 26 27 28 27 27 26 24 21 19 20 19 18 18 17 19 19 17 18 17 17 17 16 14 14 14 14 14 15 15 15 15 14 14 14 13 13 13 13 14
31 30 27 24 25 26 27 28 28 28 27 25 22 21 22 19 19 20 19 20 21 20 20 19 19 18 16 15 16 16 16 16 16 16 16 16 15 15 15 14 15 15 15 15
31 32 30 25 24 24 26 27 27 27 27 25 23 23 23 22 21 21 22 22 22 22 22 22 20 19 19 18 17 17 17 17 17 17 17 17 17 16 16 16 17 17 18 18
33 32 32 28 23 23 23 25 25 27 27 26 24 24 24 22 22 23 23 22 23 23 23 22 21 20 20 20 19 19 19 18 18 19 19 18 18 18 18 18 18 19 19 18
34 34 32 31 26 23 24 24 24 25 26 27 26 24 23 24 25 24 24 23 23 22 21 21 21 21 21 20 20 20 20 20 19 19 20 20 19 19 19 20 20 19 19 19
33 34 33 31 28 26 26 26 27 27 27 27 27 26 27 27 27 26 25 24 24 23 23 23 23 22 22 22 21 22 22 22 21 21 21 21 20 20 20 20 21 21 20 19
34 34 33 30 29 30 29 26 26 26 27 28 28 29 29 28 28 28 27 27 26 25 24 23 23 24 23 23 23 23 23 23 23 23 23 23 22 22 22 22 22 22 22 21
33 33 33 31 29 29 29 27 26 27 28 29 29 29 29 29 28 28 29 28 26 25 25 24 24 24 24 24 24 24 24 24 24 23 23 23 23 23 24 24 23 23 22 22
33 33 33 31 29 29 29 28 26 28 30 29 30 31 30 28 28 28 28 28 27 26 26 25 25 25 25 25 25 25 25 24 24 24 24 25 25 25 25 25 24 23 23 23
32 33 33 32 30 29 29 28 27 29 30 30 30 30 30 30 29 28 28 27 27 27 26 26 25 25 25 25 25 25 25 25 25 25 26 26 27 27 27 26 24 24 24 24
32 32 33 32 31 31 31 30 31 30 28 29 31 30 29 29 28 27 26 26 26 26 26 26 25 25 25 25 25 25 25 25 26 27 27 27 27 27 27 27 25 24 25 24
31 31 31 32 33 32 31 31 31 32 30 29 30 30 29 29 28 28 27 27 26 27 27 26 26 26 26 26 26 26 26 26 27 27 27 27 27 26 26 26 25 24 24 24
33 32 33 34 34 34 32 31 30 29 29 29 29 29 29 28 28 28 27 27 26 27 27 27 26 26 26 27 27 27 27 27 27 26 26 26 26 25 25 25 24 22 23 24
31 32 34 35 34 34 34 30 28 28 28 29 29 27 26 26 28 28 27 27 26 25 26 26 26 26 26 26 26 27 26 25 25 25 26 26 26 26 26 25 23 23 23 24
32 33 35 36 35 35 33 32 30 29 29 29 29 28 27 27 27 27 27 26 26 26 25 26 26 26 26 26 26 25 25 25 25 26 26 26 26 26 26 25 25 24 25 25

GEFSCGP_500_meanwind_240.txt.gz
Wind_Speed
23 21 19 17 15 13 11 10 9 9 11 11 9 8 8 9 10 10 10 10 11 11 11 11 11 11 12 12 12 12 12 11 11 11 10 10 10 9 8 7 6 6 5 5
26 23 20 19 18 17 15 13 11 11 12 11 10 9 7 8 9 9 10 10 10 10 10 10 10 11 11 11 11 11 11 11 12 11 9 9 9 8 7 6 5 5 5 5
26 23 23 22 21 21 19 17 15 13 12 12 13 11 9 8 10 8 9 10 9 9 9 8 9 10 10 10 10 10 10 10 11 10 9 8 7 7 6 5 5 5 5 4
28 26 25 24 24 23 21 19 18 16 15 15 14 11 9 10 9 9 9 9 9 8 7 7 7 8 9 10 10 10 9 9 9 9 8 8 7 7 6 5 5 5 5 4
29 28 27 26 25 24 22 20 20 18 17 15 15 14 12 12 12 11 9 9 8 8 7 7 6 7 8 9 9 9 9 9 8 7 7 7 7 7 6 5 5 5 5 5
29 29 29 27 26 26 23 22 22 22 20 17 16 16 14 12 12 11 9 10 9 9 7 7 6 6 6 7 8 8 9 9 8 7 7 6 6 6 6 5 5 5 5 5
30 30 29 29 28 27 26 25 25 25 23 19 17 17 14 12 12 11 11 11 10 10 8 7 7 6 6 7 7 8 8 8 8 7 7 6 6 6 6 6 6 6 6 5
30 30 30 29 29 27 27 27 26 25 22 20 19 18 15 13 14 14 13 12 11 10 9 7 7 7 7 7 7 7 8 8 8 8 8 7 8 7 7 7 7 7 7 7
30 30 30 30 29 27 27 27 26 25 23 22 21 19 17 16 16 15 14 13 12 12 11 9 9 9 8 8 8 8 8 8 8 8 9 9 9 9 8 9 8 8 8 8
29 30 30 30 29 28 27 27 27 26 24 24 22 20 19 18 15 14 13 13 14 14 12 11 11 10 10 9 9 8 8 8 9 9 9 9 10 10 10 10 10 10 10 10
30 30 30 31 31 29 29 29 29 28 26 25 23 22 21 20 18 17 15 15 16 15 14 12 11 11 10 10 9 9 9 9 10 10 10 10 10 10 11 11 12 12 12 12
30 30 31 32 30 29 29 29 30 30 28 27 26 24 22 21 19 17 17 17 17 15 14 12 12 12 11 10 10 11 10 10 11 11 11 11 11 11 11 12 12 13 13 13
30 31 32 32 31 30 30 29 30 30 30 29 28 25 22 20 19 17 18 19 17 16 14 13 11 13 12 11 12 13 11 11 12 12 12 12 12 12 12 13 13 13 13 13
31 32 33 33 31 31 31 31 30 31 31 30 29 27 24 22 20 19 19 19 17 16 14 13 13 14 14 14 14 13 12 13 13 13 13 13 13 14 14 14 14 14 15 15
32 33 33 33 32 31 32 31 31 32 31 31 29 28 26 24 23 22 21 20 19 16 15 15 14 14 14 15 15 14 14 14 14 14 14 14 13 14 14 15 16 16 16 16
33 34 34 34 33 32 31 30 30 30 31 31 30 28 26 26 26 25 23 22 20 17 16 17 17 17 17 17 17 16 16 15 15 15 14 14 14 14 15 16 16 17 17 17
33 34 34 34 34 33 33 31 30 30 30 30 31 30 28 28 27 26 25 24 22 20 19 19 19 18 18 18 18 18 17 17 17 16 15 15 15 16 17 17 17 18 18 18
34 34 35 35 35 37 34 32 31 30 30 30 30 30 29 29 27 27 27 26 23 22 21 21 21 21 20 20 19 19 19 18 18 18 17 17 18 18 19 18 19 19 19 18
36 34 34 35 37 38 36 34 32 31 30 30 31 30 30 29 29 28 28 26 25 24 23 23 22 22 21 21 21 21 21 20 19 19 19 19 19 19 19 19 20 20 20 19
36 35 35 35 37 38 35 34 34 32 32 31 30 30 30 30 30 29 27 26 26 26 25 24 24 23 23 23 22 22 22 22 21 21 20 20 19 19 20 20 20 20 20 20
36 35 35 35 36 36 35 35 34 34 32 30 30 29 29 30 30 29 28 28 26 26 26 25 24 24 24 24 23 23 23 23 22 22 22 21 21 21 21 21 21 21 21 21
36 36 36 35 36 36 34 35 36 34 32 31 30 30 29 29 29 28 28 28 27 26 26 24 24 24 23 23 23 23 23 23 23 22 22 22 22 22 22 21 22 22 22 22
36 36 36 36 36 34 35 34 33 33 33 31 30 30 29 29 30 29 29 29 28 27 26 25 24 24 24 24 23 23 23 23 22 22 22 22 22 22 22 22 23 23 23 23
36 35 35 35 35 35 35 35 34 33 32 31 30 30 29 29 29 30 30 30 29 27 26 26 25 25 25 24 24 24 24 24 23 23 22 22 22 23 23 23 23 23 24 24
35 35 34 34 34 34 35 34 33 32 32 31 31 31 30 30 29 29 29 29 28 27 26 25 25 25 25 25 24 24 24 24 24 23 23 23 23 23 24 24 24 24 24 25
34 34 34 34 33 33 34 35 34 32 32 31 31 30 29 29 29 29 29 29 28 27 27 26 26 25 25 25 25 24 24 24 24 24 23 23 23 23 23 24 24 24 24 24